Skip Page Navigation
NASA JPL Caltech
NASA Logo - Jet Propulsion Laboratory + View the NASA Portal
+ Center for Near-Earth Object Studies
JPL Home Earth Solar System Stars & Galaxies Technology
JPL Solar System Dynamics
BODIES ORBITS EPHEMERIDES TOOLS PHYSICAL DATA DISCOVERY FAQ SITE MAP
IMPORTANT: The SSD Announcement email list is now available. Major changes are coming in the near future, including possible hostname and/or URL changes. To be notified of such changes, subscribe to this email list.

Please visit this page for more details.


JPL Small-Body Database Browser
Search: [ help ]  
100806 (1998 FD107)
Classification: Main-belt Asteroid          SPK-ID: 2100806
Ephemeris | Orbit Diagram | Orbital Elements | Mission Design | Physical Parameters | Discovery Circumstances | Close-Approach Data ]

[ show orbit diagram ]
Orbital Elements at Epoch 2459000.5 (2020-May-31.0) TDB
Reference: JPL 17 (heliocentric ecliptic J2000)
 Element Value Uncertainty (1-sigma)   Units 
e .2272228299076113 6.887e-08  
a 2.319764770442147 1.3726e-08 au
q 1.792661254582302 1.6258e-07 au
i 11.14851348796023 8.4175e-06 deg
node 345.2190595989438 2.8785e-05 deg
peri 302.6655732971535 3.2827e-05 deg
M 27.47989233267529 1.8825e-05 deg
tp 2458901.990781006370
(2020-Feb-22.49078101)
6.7055e-05 TDB
period 1290.518842227735
3.53
1.1454e-05
3.136e-08
d
yr
n .2789575697930582 2.4759e-09 deg/d
Q 2.846868286301992 1.6845e-08 au
  Orbit Determination Parameters
   # obs. used (total)      454  
   data-arc span      7693 days (21.06 yr)  
   first obs. used      1998-03-31  
   last obs. used      2019-04-23  
   planetary ephem.      DE431  
   SB-pert. ephem.      SB431-N16  
   condition code      0  
   norm. resid. RMS      .64366  
   source      ORB  
   producer      Otto Matic  
   solution date      2019-Jul-13 09:22:17  

Additional Information
 Earth MOID = .804832 au 
 Jupiter MOID = 2.4376 au 
 T_jup = 3.519 
[ show covariance matrix ]

Ephemeris | Orbit Diagram | Orbital Elements | Mission Design | Physical Parameters | Discovery Circumstances | Close-Approach Data ]

Physical Parameter Table
Parameter Symbol Value Units Sigma Reference Notes
absolute magnitude H 15.7   n/a MPO280443  

100806 (1998 FD107)          Discovered 1998-Mar-31 by LINEAR at Socorro
Reference: 20051019/Numbers.arcLast Updated: 2005-10-26

[ show close-approach data ]
Alternate Designations
 1998 FD107 = 2002 TG15 
Ephemeris | Orbit Diagram | Orbital Elements | Mission Design | Physical Parameters | Discovery Circumstances | Close-Approach Data ]
ABOUT SSD CREDITS/AWARDS PRIVACY/COPYRIGHT GLOSSARY LINKS
FirstGov 2020-Mar-31 10:28 UT
(server date/time)  
NASA Home Page
Site Manager:   Ryan S. Park
Webmaster  Alan B. Chamberlin